Location: Kellogg
(38.0159°N, 90.0546°W)
Time: 07:39:24
(UTC+00:00)

S-56A Canister/Altair - Pass Details

Date: 17 September 2024
Orbit: 636 x 2487 km, 38.9° (Epoch: 09 October)

Event Time Altitude Azimuth Distance (km) Brightness Sun altitude
Rises 00:45:04 0° 255° (WSW) 3,137 12.0 -8.6°
Reaches altitude 10° 00:47:09 10° 255° (WSW) 2,336 11.2 -9.0°
Maximum altitude 00:52:34 85° 167° (SSE) 987 8.0 -10.0°
Enters shadow 01:00:20 11° 80° (E) 3,300 10.2 -11.5°
Drops below altitude 10° 01:00:38 10° 80° (E) 3,410 - -11.6°
Sets 01:04:15 0° 80° (E) 4,695 - -12.3°
